EW6690 Weather Reports


time (UTC)temp
C
wind
direction
speed
KPH
gust
KPH
rain 1hr
cm
rain 24hr
cm
rain mn
cm
humidity
%
barometer
mb
20260505035559 18 254 0.0 0.0 0.00 0.00 0.00 64 1009.3
20260505035545 18 254 0.0 0.0 0.00 0.00 0.00 64 1009.1
20260505034600 18 254 0.0 0.0 0.00 0.00 0.00 63 1009.1
20260505034432 19 214 0.0 0.0 0.00 0.00 0.00 62 1009.0
20260505033559 19 215 0.0 1.6 0.00 0.00 0.00 62 1008.9
20260505033117 19 223 0.0 1.6 0.00 0.00 0.00 60 1008.7
20260505032604 20 213 0.0 0.0 0.00 0.00 0.00 61 1008.6
20260505032114 20 259 0.0 0.0 0.00 0.00 0.00 60 1008.6
20260505031601 20 242 0.0 1.6 0.00 0.00 0.00 59 1008.5
20260505031107 21 255 0.0 1.6 0.00 0.00 0.00 59 1008.5
20260505030917 21 202 0.0 1.6 0.00 0.00 0.00 57 1008.4
20260505030641 21 286 0.0 1.6 0.00 0.00 0.00 58 1008.5
20260505025639 22 277 0.0 0.0 0.00 0.00 0.00 55 1008.4
20260505025058 22 252 0.0 1.6 0.00 0.00 0.00 54 1008.3
20260505024633 22 261 0.0 1.6 0.00 0.00 0.00 53 1008.3
20260505024456 22 254 0.0 1.6 0.00 0.00 0.00 52 1008.3
20260505023627 22 296 0.0 0.0 0.00 0.00 0.00 51 1008.3
20260505023056 23 275 0.0 0.0 0.00 0.00 0.00 50 1008.3
20260505022925 23 298 0.0 1.6 0.00 0.00 0.00 49 1008.2
20260505022056 23 302 0.0 1.6 0.00 0.00 0.00 48 1008.2
20260505021614 23 291 0.0 0.0 0.00 0.00 0.00 47 1008.2
20260505021058 23 304 0.0 0.0 0.00 0.00 0.00 45 1008.2
20260505020611 23 205 0.0 1.6 0.00 0.00 0.00 45 1008.3
20260505015605 23 218 0.0 3.2 0.00 0.00 0.00 44 1008.3
20260505015056 23 217 0.0 6.4 0.00 0.00 0.00 43 1008.3
20260505014559 23 267 0.0 6.4 0.00 0.00 0.00 42 1008.3
20260505014058 24 277 0.0 3.2 0.00 0.00 0.00 41 1008.3
20260505013601 24 306 0.0 6.4 0.00 0.00 0.00 41 1008.3
20260505013445 24 298 0.0 6.4 0.00 0.00 0.00 39 1008.3
20260505012606 24 207 0.0 6.4 0.00 0.00 0.00 37 1008.2
20260505012557 24 294 0.0 6.4 0.00 0.00 0.00 38 1008.3
20260505011618 24 252 0.0 3.2 0.00 0.00 0.00 38 1008.3
20260505011604 24 246 0.0 4.8 0.00 0.00 0.00 38 1008.2
20260505010555 25 291 0.0 4.8 0.00 0.00 0.00 36 1008.3
20260505010118 25 196 0.0 11.3 0.00 0.00 0.00 34 1008.4
20260505005554 25 212 0.0 11.3 0.00 0.00 0.00 34 1008.4
20260505005112 25 253 0.0 8.0 0.00 0.00 0.00 33 1008.4
20260505004554 25 310 0.0 8.0 0.00 0.00 0.00 33 1008.4
20260505004107 25 309 0.0 1.6 0.00 0.00 0.00 34 1008.3
20260505003554 25 283 0.0 6.4 0.00 0.00 0.00 35 1008.4
20260505003059 25 292 0.0 6.4 0.00 0.00 0.00 34 1008.3
20260505002555 25 292 1.6 11.3 0.00 0.00 0.00 34 1008.4
20260505002055 25 307 1.6 11.3 0.00 0.00 0.00 32 1008.3
20260505001630 25 298 0.0 8.0 0.00 0.00 0.00 33 1008.4
20260505001051 25 275 0.0 8.0 0.00 0.00 0.00 33 1008.3
20260505000629 25 205 0.0 6.4 0.00 0.00 0.00 32 1008.4
20260505000058 25 292 0.0 6.4 0.00 0.00 0.00 33 1008.4
20260504235618 25 316 0.0 3.2 0.00 0.00 0.00 33 1008.4
20260504235050 25 313 0.0 8.0 0.00 0.00 0.00 35 1008.4
20260504234921 25 300 0.0 8.0 0.00 0.00 0.00 32 1008.5
20260504234518 25 224 0.0 3.2 0.00 0.00 0.00 33 1008.5
20260504233606 25 299 0.0 11.3 0.00 0.00 0.00 34 1008.5
20260504233050 25 300 0.0 11.3 0.00 0.00 0.00 35 1008.5
20260504233012 25 259 0.0 6.4 0.00 0.00 0.00 32 1008.4
20260504232049 25 272 0.0 6.4 0.00 0.00 0.00 37 1008.4
20260504231559 25 291 0.0 6.4 0.00 0.00 0.00 35 1008.4
20260504231048 25 302 0.0 14.5 0.00 0.00 0.00 35 1008.4
20260504230552 25 53 0.0 14.5 0.00 0.00 0.00 35 1008.6
20260504230240 25 279 1.6 11.3 0.00 0.00 0.00 34 1008.6
20260504230151 25 301 0.0 9.7 0.00 0.00 0.00 35 1008.6
20260504225121 25 285 0.0 11.3 0.00 0.00 0.00 34 1008.7
20260504224548 25 252 0.0 8.0 0.00 0.00 0.00 37 1008.8
20260504224541 24 278 0.0 6.4 0.00 0.00 0.00 37 1008.8
20260504223543 24 293 0.0 8.0 0.00 0.00 0.00 37 1008.9
20260504223112 25 321 1.6 11.3 0.00 0.00 0.00 36 1008.9
20260504222541 25 338 1.6 11.3 0.00 0.00 0.00 37 1008.9
20260504222104 25 298 0.0 6.4 0.00 0.00 0.00 35 1008.9
20260504221541 25 309 1.6 12.9 0.00 0.00 0.00 37 1009.0
20260504221100 25 296 1.6 12.9 0.00 0.00 0.00 38 1009.1
20260504220934 25 289 1.6 14.5 0.00 0.00 0.00 38 1009.0
20260504220108 25 304 0.0 14.5 0.00 0.00 0.00 37 1009.1
20260504215933 25 305 0.0 11.3 0.00 0.00 0.00 41 1009.1
20260504215048 25 273 1.6 16.1 0.00 0.00 0.00 42 1009.1
20260504214932 24 284 1.6 16.1 0.00 0.00 0.00 41 1009.1
20260504214337 24 275 1.6 8.0 0.00 0.00 0.00 41 1009.1
20260504213617 24 306 1.6 11.3 0.00 0.00 0.00 44 1009.1
20260504213326 24 247 1.6 11.3 0.00 0.00 0.00 41 1009.0
20260504212721 24 303 0.0 9.7 0.00 0.00 0.00 44 1009.1
20260504212709 24 296 0.0 11.3 0.00 0.00 0.00 42 1009.1
20260504212701 24 290 1.6 12.9 0.00 0.00 0.00 43 1009.1
20260504212616 24 300 1.6 12.9 0.00 0.00 0.00 44 1009.2
20260504211646 24 255 1.6 11.3 0.00 0.00 0.00 42 1009.1
20260504210033 24 263 0.0 9.7 0.00 0.00 0.00 43 1009.2
20260504205854 24 297 0.0 8.0 0.00 0.00 0.00 45 1009.2
20260504205035 24 250 0.0 8.0 0.00 0.00 0.00 43 1009.3
20260504204544 24 215 0.0 8.0 0.00 0.00 0.00 43 1009.2
20260504204035 23 191 0.0 11.3 0.00 0.00 0.00 43 1009.3
20260504203540 23 273 0.0 11.3 0.00 0.00 0.00 44 1009.3
20260504203114 24 320 0.0 8.0 0.00 0.00 0.00 43 1009.3
20260504202533 24 317 0.0 3.2 0.00 0.00 0.00 46 1009.2
20260504202108 23 248 0.0 6.4 0.00 0.00 0.00 41 1009.2
20260504201533 23 194 0.0 6.4 0.00 0.00 0.00 42 1009.2
20260504201100 23 292 0.0 1.6 0.00 0.00 0.00 46 1009.3
20260504200535 23 223 0.0 4.8 0.00 0.00 0.00 43 1009.3
20260504200105 23 292 0.0 4.8 0.00 0.00 0.00 44 1009.3
20260504195533 23 205 0.0 9.7 0.00 0.00 0.00 44 1009.4
20260504195046 23 313 0.0 9.7 0.00 0.00 0.00 46 1009.4
20260504194534 23 203 0.0 6.4 0.00 0.00 0.00 43 1009.5
20260504194346 23 199 0.0 4.8 0.00 0.00 0.00 45 1009.5
20260504193533 23 306 0.0 4.8 0.00 0.00 0.00 46 1009.5
20260504193035 23 204 0.0 1.6 0.00 0.00 0.00 45 1009.5
20260504192613 23 298 0.0 6.4 0.00 0.00 0.00 47 1009.6
20260504192034 23 295 0.0 6.4 0.00 0.00 0.00 49 1009.7
20260504191916 23 313 0.0 4.8 0.00 0.00 0.00 47 1009.7
20260504191432 22 256 0.0 4.8 0.00 0.00 0.00 47 1009.7
20260504190605 22 301 0.0 4.8 0.00 0.00 0.00 47 1009.7
20260504190033 22 212 0.0 0.0 0.00 0.00 0.00 45 1009.6
20260504185559 22 155 0.0 0.0 0.00 0.00 0.00 45 1009.7
20260504185028 22 207 0.0 1.6 0.00 0.00 0.00 48 1009.8
20260504184555 22 184 0.0 8.0 0.00 0.00 0.00 47 1009.8
20260504184031 22 261 0.0 8.0 0.00 0.00 0.00 45 1009.8
20260504183846 22 211 0.0 6.4 0.00 0.00 0.00 46 1009.8
20260504183029 22 302 0.0 6.4 0.00 0.00 0.00 47 1010.0
20260504182543 22 277 0.0 4.8 0.00 0.00 0.00 50 1010.0
20260504182028 21 256 0.0 4.8 0.00 0.00 0.00 47 1010.1
20260504181832 21 211 0.0 0.0 0.00 0.00 0.00 47 1010.0
20260504181428 21 202 0.0 1.6 0.00 0.00 0.00 47 1010.1
20260504180531 21 215 0.0 3.2 0.00 0.00 0.00 46 1010.1
20260504180023 21 194 0.0 3.2 0.00 0.00 0.00 45 1010.1
20260504175523 21 287 0.0 0.0 0.00 0.00 0.00 47 1010.1
20260504175101 21 205 0.0 0.0 0.00 0.00 0.00 46 1010.0
20260504174521 21 190 0.0 0.0 0.00 0.00 0.00 47 1010.1
20260504174108 21 284 0.0 0.0 0.00 0.00 0.00 45 1010.0
20260504173521 21 303 0.0 0.0 0.00 0.00 0.00 50 1010.0
20260504173046 21 193 0.0 0.0 0.00 0.00 0.00 47 1010.0
20260504172523 21 142 0.0 0.0 0.00 0.00 0.00 49 1010.0
20260504172338 20 142 0.0 0.0 0.00 0.00 0.00 49 1010.0
20260504171519 20 211 0.0 0.0 0.00 0.00 0.00 50 1010.0
20260504171038 20 208 0.0 0.0 0.00 0.00 0.00 49 1010.0
20260504170520 20 208 0.0 0.0 0.00 0.00 0.00 49 1010.0
20260504151012 17 123 0.0 0.0 0.00 0.00 0.00 58 1009.3
20260504150511 17 123 0.0 0.0 0.00 0.00 0.00 60 1009.3
20260504141020 13 123 0.0 0.0 0.00 0.00 0.00 68 1008.9
20260504140901 13 123 0.0 0.0 0.00 0.00 0.00 70 1008.9
20260504130820 15 123 0.0 0.0 0.00 0.00 0.00 59 1008.2
20260504110538 13 114 0.0 0.0 0.00 0.00 0.00 63 1008.3
20260504100505 15 114 0.0 0.0 0.00 0.00 0.00 62 1008.2
20260504081945 16 109 0.0 0.0 0.00 0.00 0.00 63 1008.3
20260504081515 16 109 0.0 0.0 0.00 0.00 0.00 63 1008.3
20260504080945 16 83 0.0 0.0 0.00 0.00 0.00 64 1008.3
20260504080509 16 82 0.0 0.0 0.00 0.00 0.00 64 1008.3
20260504080332 15 82 0.0 0.0 0.00 0.00 0.00 65 1008.3
20260504050442 18 307 0.0 0.0 0.00 0.00 0.00 61 1008.3
20260504050016 19 307 0.0 0.0 0.00 0.00 0.00 60 1008.3
20260504045728 19 307 0.0 0.0 0.00 0.00 0.00 59 1008.4
20260504045010 20 306 0.0 0.0 0.00 0.00 0.00 58 1008.3
20260504044436 20 306 0.0 0.0 0.00 0.00 0.00 57 1008.3
20260504044007 20 321 0.0 0.0 0.00 0.00 0.00 57 1008.2
20260504043438 20 294 0.0 0.0 0.00 0.00 0.00 57 1008.2
20260504042959 20 322 0.0 0.0 0.00 0.00 0.00 56 1008.2
20260504042834 20 303 0.0 0.0 0.00 0.00 0.00 56 1008.2
20260504041953 20 303 0.0 0.0 0.00 0.00 0.00 56 1008.2
20260504041832 20 304 0.0 0.0 0.00 0.00 0.00 55 1008.0
20260504041525 20 304 0.0 0.0 0.00 0.00 0.00 55 1008.1
20260504040825 21 304 0.0 0.0 0.00 0.00 0.00 54 1008.1
20260504040221 21 304 0.0 0.0 0.00 0.00 0.00 53 1008.0
20260504040036 21 304 0.0 0.0 0.00 0.00 0.00 53 1008.1